Regional Weather Roundup
Issued by NWS

Home | Current Version | Previous Version | Text Only | Print | Product List | Glossary Off
Versions: 1 2 3 4 5 6 7 8 9 10 11 12 13 14 15 16 17 18 19 20 21 22 23 24 25 26 27 28 29 30 31 32 33 34 35 36 37 38 39 40 41 42 43 44 45 46 47 48 49 50

000
ASUS45 KTFX 301504
RWRMT
MONTANA HOURLY WEATHER ROUNDUP
NATIONAL WEATHER SERVICE GREAT FALLS MT
904 AM MDT WED JUL 30 2014

NOTE: "FAIR" INDICATES FEW OR NO CLOUDS BELOW 12000 FEET WITH NO
SIGNIFICANT WEATHER AND/OR OBSTRUCTIONS TO VISIBILITY.

* THESE STATIONS ARE NOT UNDER NWS QUALITY CONTROL. THEY DO NOT
   REPORT WEATHER SUCH AS PRECIPITATION OR FOG.

MTZ001>007-043-301600-
WEST OF THE DIVIDE
CITY           SKY/WX    TMP DP  RH WIND       PRES   REMARKS
KALISPELL      SUNNY     72  50  46 N14       30.13S
MISSOULA       PTCLDY    68  43  40 CALM      30.18R
BUTTE          SUNNY     64  45  50 NW3       30.32R
MULLAN PASS    PTCLDY    72  37  28 CALM      30.31R
* LINCOLN      N/A       55  46  72 NW1        N/A
* LOOKOUT PASS N/A       67  45  45 SE2        N/A
* POLSON       N/A       66  51  59 S1         N/A
* RONAN APT    SUNNY     72  55  55 N/A        N/A
* SEELEY LAKE  N/A       60  46  60 SE1        N/A
* THOMP F APT  PTCLDY    64  47  54 N/A        N/A
* YAAK HILL    N/A       61  50  67 E1G6       N/A
$$

MTZ008-052>055-301600-
SOUTHWEST MONTANA
CITY           SKY/WX    TMP DP  RH WIND       PRES   REMARKS
BOZEMAN        SUNNY     66  48  52 N6        30.26F
DILLON         PTCLDY    61  52  72 SW7       30.30S
W YELLOWSTONE  FOG       46  46 100 CALM      30.42S VSB M1/4
* THREE FORKS  PTCLDY    64  64 100 N/A        N/A
* BOULDER HILL N/A       65  43  45 S8         N/A
* MONIDA PASS  N/A       57  47  69 NW2        N/A
* RAYNOLDS PAS N/A       56  40  55 S4         N/A
* WHITEHALL    N/A       61  49  65 S2         N/A
* WISE RIVER   N/A       55  46  72 W3         N/A
$$

MTZ009>010-012-014-046-048-049-054-301600-
EAST SLOPES AND CENTRAL MONTANA
CITY           SKY/WX    TMP DP  RH WIND       PRES   REMARKS
CUT BANK       PTCLDY    70  46  42 E5        30.17F
GREAT FALLS    SUNNY     79  48  34 S9        30.18S
HELENA         SUNNY     68  46  45 CALM      30.22S
MALMSTROM AFB  SUNNY     75  48  39 VRB2      30.19S
* CONRAD       SUNNY     64  55  73 N/A        N/A
* DEARBORN     N/A       66  47  51 S1         N/A
* EAST GLACIER N/A       70  45  41 NW4        N/A
* MONARCH      N/A       68  46  45 S4         N/A
* ROGERS PASS  N/A       69  44  41 SE6        N/A
* SAINT MARY   N/A       57  53  87 W1         N/A
* SWEET GRASS  N/A       72  43  35 S16        N/A
$$

MTZ011-013-016-021-035-040-045-047-050-051-301600-
NORTH CENTRAL MONTANA
CITY           SKY/WX    TMP DP  RH WIND       PRES   REMARKS
HAVRE          SUNNY     72  48  43 CALM      30.14R
LEWISTOWN      PTCLDY    75  46  36 E7        30.25S
* CHESTER      N/A       76  44  32 N/A        N/A
* DENTON       N/A       78  54  44 SE6        N/A
* GEYSER       N/A       78  50  38 NW1        N/A
* JUDITH GAP   N/A       69  53  57 S6         N/A
* LOMA         N/A       73  45  37 E4         N/A
$$

MTZ017>020-022>027-061-062-301600-
NORTHEAST MONTANA
CITY           SKY/WX    TMP DP  RH WIND       PRES   REMARKS
GLASGOW        SUNNY     72  54  53 SE8       30.18S
GLENDIVE       SUNNY     70  55  59 CALM      30.22S
JORDAN         SUNNY     73  46  38 E3        30.19F
SIDNEY         SUNNY     68  59  73 NE5       30.21S
WOLF POINT     SUNNY     70  55  59 E5        30.19F
* BEAVER HILL  N/A       70  56  61 N1         N/A
* CIRCLE       N/A       70  55  59 SW2        N/A
* LINDSAY DVD  N/A       73  54  51 SE3        N/A
$$

MTZ028>042-056>058-301600-
SOUTHCENTRAL AND SOUTHEAST MONTANA
CITY           SKY/WX    TMP DP  RH WIND       PRES   REMARKS
BAKER          SUNNY     72  54  53 NW3       30.23S
BILLINGS       PTCLDY    68  54  61 SW8       30.25S
LIVINGSTON     PTCLDY    66  48  52 W5        30.29S
MILES CITY     SUNNY     70  52  53 CALM      30.21S
* LAUREL APT   SUNNY     70  54  57 S8         N/A
* ROUNDUP APT  PTCLDY    68  45  44 S5         N/A
* ALZADA       N/A       70  55  59 SW5        N/A
* HYSHAM       N/A       73  45  37 NW7        N/A
* LAME DEER    N/A       75  43  32 N/A        N/A
* REED POINT   N/A       66  52  61 W6         N/A
* ROSCOE HILL  N/A       73  39  29 E9         N/A
$$

REGIONAL REPORTS...DAKOTAS
CITY           SKY/WX    TMP DP  RH WIND       PRES   REMARKS
WILLISTON      SUNNY     70  57  64 VRB3      30.20S
DICKINSON      SUNNY     70  57  64 NE5       30.19S
CROSBY         SUNNY     66  59  78 CALM      30.21S
TIOGA          SUNNY     68  66  93 NW3       30.23S
WATFORD CITY   SUNNY     66  59  78 CALM      30.18S
BISMARCK       SUNNY     70  57  64 VRB3      30.18R
GRAND FORKS    SUNNY     72  57  59 W5        30.11F
FARGO          SUNNY     72  55  55 N6        30.13S
BUFFALO SD     SUNNY     72  55  55 N7        30.15R
RAPID CITY     SUNNY     73  55  53 VRB3      30.21S
$$

REGIONAL REPORTS...WYOMING/IDAHO/WASHINGTON
CITY           SKY/WX    TMP DP  RH WIND       PRES   REMARKS
GILLETTE       PTCLDY    70  54  57 W7        30.27S
SHERIDAN       PTCLDY    68  50  53 VRB3      30.28S
YELLOWSTONE LA PTSUNNY   57  48  72 CALM      30.49S
SALMON         PTSUNNY   61  54  78 CALM      30.24S
MULLAN PASS    PTCLDY    72  37  28 CALM      30.31S
SAND POINT     SUNNY     68  55  63 CALM      30.09R
SPOKANE        PTCLDY    75  43  32 SE6       30.07R

$$




USA.gov is the U.S. government's official web portal to all federal, state and local government web resources and services.